FW4179 Weather Reports


Display with metric or nautical units.
time (UTC)temp
F
wind
direction
speed
MPH
gust
MPH
rain 1hr
in
rain 24hr
in
rain mn
in
humidity
%
barometer
mb
20260505233045 70 160 3.0 17.0 0.00 0.00 0.00 54 1010.2
20260505231550 70 166 7.0 16.0 0.00 0.00 0.00 54 1009.7
20260505230050 71 158 6.0 21.0 0.00 0.00 0.00 51 1010.4
20260505224546 71 238 2.0 12.0 0.00 0.00 0.00 52 1011.8
20260505223100 72 216 4.0 7.0 0.00 0.00 0.00 50 1011.2
20260505221558 74 186 3.0 10.0 0.00 0.00 0.00 47 1010.5
20260505214559 75 163 6.0 15.0 0.00 0.00 0.00 50 1010.3
20260505213048 75 169 7.0 17.0 0.00 0.00 0.00 48 1010.2
20260505211554 75 169 5.0 14.0 0.00 0.00 0.00 49 1010.2
20260505210046 75 159 6.0 15.0 0.00 0.00 0.00 50 1010.3
20260505204553 75 198 4.0 11.0 0.00 0.00 0.00 51 1010.6
20260505203045 74 134 4.0 14.0 0.00 0.00 0.00 52 1010.9
20260505201555 73 151 8.0 20.0 0.00 0.00 0.00 52 1011.0
20260505200100 73 145 4.0 16.0 0.00 0.00 0.00 56 1011.5
20260505194544 73 163 4.0 10.0 0.00 0.00 0.00 59 1011.8
20260505193046 71 131 4.0 13.0 0.00 0.00 0.00 59 1011.9
20260505191547 71 141 3.0 11.0 0.00 0.00 0.00 63 1012.3
20260505190050 72 155 1.0 8.0 0.00 0.00 0.00 59 1012.7
20260505184545 71 0 4.0 8.0 0.00 0.00 0.00 60 1013.1
20260505183051 70 163 2.0 8.0 0.00 0.00 0.00 62 1012.5
20260505181554 70 151 3.0 9.0 0.00 0.00 0.00 62 1012.8
20260505180053 69 0 1.0 8.0 0.00 0.00 0.00 64 1013.3
20260505174552 69 210 3.0 8.0 0.00 0.00 0.00 64 1013.7
20260505173056 70 209 7.0 13.0 0.00 0.00 0.00 60 1014.0
20260505171554 71 188 2.0 10.0 0.00 0.00 0.00 63 1014.0
20260505170053 71 219 1.0 10.0 0.00 0.00 0.00 65 1014.2
20260505164546 71 236 3.0 7.0 0.00 0.00 0.00 64 1014.2
20260505163049 70 247 4.0 9.0 0.00 0.00 0.00 65 1014.7
20260505161544 70 238 3.0 9.0 0.00 0.00 0.00 65 1014.9
20260505153048 68 205 2.0 7.0 0.00 0.00 0.00 71 1014.6
20260505151547 67 167 1.0 8.0 0.00 0.00 0.00 70 1014.6
20260505124600 61 135 3.0 8.0 0.00 0.00 0.00 73 1014.4
20260505123053 59 148 0.0 3.0 0.00 0.00 0.00 77 1014.2
20260505121550 58 150 1.0 5.0 0.00 0.00 0.00 76 1013.9
20260505120101 58 155 1.0 5.0 0.00 0.00 0.00 75 1013.7
20260505114547 57 135 2.0 4.0 0.00 0.00 0.00 75 1013.6
20260505113045 57 149 1.0 4.0 0.00 0.00 0.00 74 1013.5
20260505111548 57 149 0.0 3.0 0.00 0.00 0.00 74 1013.4
20260505101546 57 157 2.0 6.0 0.00 0.00 0.00 73 1012.8
20260505100048 57 135 3.0 7.0 0.00 0.00 0.00 74 1012.5
20260505094545 57 0 1.0 4.0 0.00 0.00 0.00 74 1012.7
20260505093045 58 0 0.0 3.0 0.00 0.00 0.00 73 1012.9
20260505091552 58 0 1.0 3.0 0.00 0.00 0.00 73 1012.9
20260505090048 58 0 1.0 4.0 0.00 0.00 0.00 72 1012.5
20260505084550 59 140 2.0 4.0 0.00 0.00 0.00 72 1012.5
20260505083044 59 138 1.0 4.0 0.00 0.00 0.00 73 1012.5
20260505081552 59 139 1.0 4.0 0.00 0.00 0.00 73 1012.5
20260505080053 59 143 2.0 4.0 0.00 0.00 0.00 73 1012.5
20260505074549 59 138 3.0 5.0 0.00 0.00 0.00 73 1012.5
20260505073053 59 142 1.0 4.0 0.00 0.00 0.00 73 1012.5
20260505071545 60 142 0.0 3.0 0.00 0.00 0.00 72 1012.7
20260505070055 60 137 1.0 3.0 0.00 0.00 0.00 71 1012.9
20260505064546 60 136 1.0 4.0 0.00 0.00 0.00 71 1013.0
20260505063109 61 136 2.0 7.0 0.00 0.00 0.00 70 1012.8
20260505061556 60 128 3.0 8.0 0.00 0.00 0.00 70 1012.9
20260505060049 61 0 2.0 5.0 0.00 0.00 0.00 69 1012.9
20260505054553 61 142 3.0 7.0 0.00 0.00 0.00 68 1013.1
20260505053056 62 142 3.0 5.0 0.00 0.00 0.00 68 1013.1
20260505051547 62 150 3.0 6.0 0.00 0.00 0.00 67 1013.0
20260505041553 64 136 3.0 8.0 0.00 0.00 0.00 64 1012.7
20260505040052 63 154 3.0 7.0 0.00 0.00 0.00 65 1012.7
20260505034545 64 136 2.0 7.0 0.00 0.00 0.00 65 1012.6
20260505033045 64 140 2.0 6.0 0.00 0.00 0.00 65 1012.7
20260505031553 65 149 2.0 6.0 0.00 0.00 0.00 65 1012.8
20260505030047 65 147 2.0 9.0 0.00 0.00 0.00 65 1012.7
20260505024556 65 140 4.0 9.0 0.00 0.00 0.00 66 1012.6
20260505023046 65 145 3.0 7.0 0.00 0.00 0.00 66 1012.7
20260505021547 66 134 3.0 7.0 0.00 0.00 0.00 63 1012.7
20260505020044 66 142 2.0 4.0 0.00 0.00 0.00 62 1012.6
20260505014602 67 139 2.0 5.0 0.00 0.00 0.00 61 1012.6
20260505013043 67 0 0.0 0.0 0.00 0.00 0.00 60 1012.4
20260505011556 68 0 0.0 0.0 0.00 0.00 0.00 59 1012.3
20260505010045 69 0 0.0 4.0 0.00 0.00 0.00 57 1012.2
20260505004602 69 215 2.0 4.0 0.00 0.00 0.00 56 1012.2
20260505003049 70 225 1.0 4.0 0.00 0.00 0.00 55 1012.0
20260505001550 71 225 3.0 7.0 0.00 0.00 0.00 54 1012.1
20260505000057 72 236 2.0 6.0 0.00 0.00 0.00 53 1011.9
20260504234550 73 234 3.0 9.0 0.00 0.00 0.00 52 1012.0